Regional Weather Roundup
Issued by NWS

Home | Current Version | Previous Version | Text Only | Print | Product List | Glossary Off
Versions: 1 2 3 4 5 6 7 8 9 10 11 12 13 14 15 16 17 18 19 20 21 22 23 24 25 26 27 28 29 30 31 32 33 34 35 36 37 38 39 40 41 42 43 44 45 46 47 48 49 50

000
ASUS43 KDTX 110310
RWRMI
MICHIGAN HOURLY REGIONAL WEATHER ROUNDUP
NATIONAL WEATHER SERVICE DETROIT/PONTIAC MI
ISSUED BY NATIONAL WEATHER SERVICE GRAND RAPIDS MI
1000 PM EST SAT DEC 10 2016

NOTE: "FAIR" INDICATES FEW OR NO CLOUDS BELOW 12,000 FEET WITH NO
SIGNIFICANT WEATHER AND/OR OBSTRUCTION TO VISIBILITY.

MIZ047>049-052>055-059>063-066>070-074>076-081>083-110400-
SOUTHEAST LOWER MICHIGAN

CITY           SKY/WX    TMP DP  RH WIND       PRES   REMARKS
ADRIAN         CLOUDY    24  16  71 SW7       30.40F WCI  16
ALMA           CLOUDY    21  17  85 CALM      30.36F
ANN ARBOR      CLOUDY    23  16  74 SW7       30.39S WCI  15
BAD AXE        CLOUDY    21  12  68 SW7       30.36S WCI  13
DETROIT CITY   CLOUDY    25  16  68 W8        30.40S WCI  16
DETROIT        CLOUDY    25  16  68 SW9       30.41S WCI  15
FLINT          CLOUDY    22  19  89 SW5       30.37S WCI  16
GROSSE ILE     CLOUDY    26  17  68 W7        30.40R WCI  18
HILLSDALE      CLOUDY    21  14  73 S5        30.34F WCI  15
HOWELL         CLOUDY    22  18  81 SW3       30.36S

CITY           SKY/WX    TMP DP  RH WIND       PRES   REMARKS
JACKSON        CLOUDY    22  14  71 S7        30.36F WCI  13
LANSING        CLOUDY    23  16  74 SW7       30.36F WCI  15
MASON          CLOUDY    22  18  85 S3        30.36F
MONROE         PTCLDY    25  18  74 SW5       30.40S WCI  20
MT. CLEMENS    CLOUDY    24  17  74 SW7       30.37S WCI  16
PONTIAC        FLURRIES  22  17  81 W5        30.36S WCI  16
PORT HOPE        N/A     23  10  57 SW7       30.33F WCI  15
PORT HURON     MOCLDY    21  19  93 CALM      30.38S
TRI CITIES     PTCLDY    20  13  74 W5        30.37F WCI  13
YPSILANTI      CLOUDY    25  17  72 SW7       30.40S WCI  17
$$
MIZ043>046-050>051-056>058-064>065-071>073-077>080-110400-
SOUTHWEST LOWER MICHIGAN

CITY           SKY/WX    TMP DP  RH WIND       PRES   REMARKS
BATTLE CREEK   CLOUDY    22  16  78 S8        30.35F WCI  12
BENTON HARBOR  LGT SNOW  23  18  81 S8        30.36F WCI  14
BIG RAPIDS     CLOUDY    16  12  82 CALM      30.32S
COLDWATER      CLOUDY    24  16  72 S3        30.36F
HOLLAND        LGT SNOW  22  19  89 S9        30.34S FOG     WCI  12
GRAND RAPIDS   LGT SNOW  22  17  81 S12       30.35F WCI  10
KALAMAZOO      CLOUDY    23  14  68 S10       30.35F WCI  12
MARSHALL       FLURRIES  22  16  75 S5        30.35F WCI  16
MOUNT PLEASANT CLOUDY    20  12  71 CALM      30.34F
MUSKEGON       LGT SNOW  22  20  92 E7        30.33F FOG     WCI  13
STURGIS        LGT SNOW  22  19  87 S6        30.36F WCI  15
$$
MIZ016>042-110400-
NORTHERN LOWER MICHIGAN

CITY           SKY/WX    TMP DP  RH WIND       PRES   REMARKS
ALPENA         PTCLDY    15   6  67 SW5       30.32F WCI   8
BEAVER ISLAND  FLURRIES  23  16  74 SE3       30.28F
BELLAIRE       CLOUDY    19  14  80 S8        30.33F WCI   9
CADILLAC       CLOUDY    17  12  82 S3        30.27F
CHARLEVOIX     LGT SNOW  22  15  75 S9        30.32F WCI  12
GAYLORD        CLOUDY    14   7  73 SW9       30.26F WCI   2
HOUGHTON LAKE  CLOUDY    17  12  80 SW3       30.31F
MANISTEE       FLURRIES  20  13  74 SE5       30.32F WCI  13
OSCODA         CLOUDY    17  11  75 MISG      30.34S
PELLSTON       SNOW      19  15  84 SE8       30.29F VSB 1/2 WCI   9
TRAVERSE CITY  CLOUDY    20  14  77 CALM      30.32F
LUDINGTON      CLOUDY    20  16  82 E6        30.32S WCI  13
$$
MIZ007>008-015-110400-
EASTERN UPPER MICHIGAN

CITY           SKY/WX    TMP DP  RH WIND       PRES   REMARKS
KINROSS        PTCLDY    11   9  92 W6        30.27F WCI   1
MACKINAC ISLAN CLOUDY    20  16  82 NW7       30.27S WCI  11
NEWBERRY       CLEAR     11   6  81 SW9       30.26F WCI  -2
S. S. MARIE    CLEAR     12   9  87 CALM      30.27S
$$
MIZ004>006-011>014-085-110400-
CENTRAL UPPER MICHIGAN

CITY           SKY/WX    TMP DP  RH WIND       PRES   REMARKS
MANISTIQUE     CLOUDY    12   6  77 NW7       30.29F WCI   2
ESCANABA       CLOUDY    10   6  84 CALM      30.31F
MENOMINEE      CLOUDY    14   5  67 CALM      30.33F
SAWYER-GWINN   CLEAR      3  -2  78 W3        30.26S
$$
MIZ001>003-009>011-084-110400-
WESTERN UPPER MICHIGAN

CITY           SKY/WX    TMP DP  RH WIND       PRES   REMARKS
IRON MOUNTAIN  CLOUDY     7   0  73 CALM      30.25F
HOUGHTON       FLURRIES  11   5  77 W7        30.25R WCI   0
COPPER HARBOR    N/A     15  10  80 W6        30.27F WCI   6
IRONWOOD       PTCLDY    -5  -8  87 CALM      30.26F
$$

ABBREVIATIONS USED IN REMARKS
   TC - TEMPERATURE IN CELSIUS
  WCI - WIND CHILL INDEX
   HX - HEAT INDEX
  VSB - VISIBILITY




USA.gov is the U.S. government's official web portal to all federal, state and local government web resources and services.